Location: Unspecified
(49.2170°N, 0.0000°E)
Time: 21:00:48
(UTC+00:00)

Transit 4A - Pass Details

Date: 18 June 2019
Orbit: 862 x 982 km, 66.8° (Epoch: 18 July)

Event Time Altitude Azimuth Distance (km) Brightness Sun altitude
Rises 13:46:55 0° 306° (NW) 3,688 11.1 56.9°
Reaches altitude 10° 13:50:40 10° 328° (NNW) 2,746 10.4 56.4°
Maximum altitude 13:54:32 16° 5° (N) 2,318 9.9 55.9°
Drops below altitude 10° 13:58:24 10° 42° (NE) 2,738 10.1 55.4°
Sets 14:02:08 0° 64° (ENE) 3,674 10.7 54.9°
